Location: Vinland
(47.7731°N, 122.6974°W)
Time: 01:46:18
(UTC+00:00)

Transit 4A - Pass Details

Date: 07 April 2023
Orbit: 864 x 979 km, 66.8° (Epoch: 29 May)

Event Time Altitude Azimuth Distance (km) Brightness Sun altitude
Exits shadow 11:15:15 27° 174° (S) 1,604 8.8 -22.3°
Maximum altitude 11:18:04 48° 115° (ESE) 1,132 8.5 -21.9°
Drops below altitude 10° 11:23:44 10° 43° (NE) 2,576 11.4 -21.2°
Sets 11:26:21 0° 38° (NE) 3,538 12.3 -20.8°
